Skip Page Navigation
NASA JPL Caltech
NASA Logo - Jet Propulsion Laboratory + View the NASA Portal
+ Center for Near-Earth Object Studies
JPL Home Earth Solar System Stars & Galaxies Technology
JPL Solar System Dynamics
BODIES ORBITS EPHEMERIDES TOOLS PHYSICAL DATA DISCOVERY FAQ SITE MAP
IMPORTANT: The SSD Announcement email list is now available. Major changes are coming in the near future, including possible hostname and/or URL changes. To be notified of such changes, subscribe to this email list.

Please visit this page for more details.


JPL Small-Body Database Browser
Search: [ help ]  
47482 (2000 AT13)
Classification: Main-belt Asteroid          SPK-ID: 2047482
Ephemeris | Orbit Diagram | Orbital Elements | Mission Design | Physical Parameters | Discovery Circumstances | Close-Approach Data ]

[ show orbit diagram ]
Orbital Elements at Epoch 2459000.5 (2020-May-31.0) TDB
Reference: JPL 17 (heliocentric ecliptic J2000)
 Element Value Uncertainty (1-sigma)   Units 
e .1305114780488494 4.6087e-08  
a 2.599207379558562 1.6775e-08 au
q 2.259980982696897 1.1787e-07 au
i 12.7781539446003 5.1156e-06 deg
node 278.1897738996253 2.481e-05 deg
peri 312.0571053007394 3.274e-05 deg
M 179.347397191993 2.2842e-05 deg
tp 2458237.977959365474
(2018-Apr-29.47795937)
9.5358e-05 TDB
period 1530.593356392935
4.19
1.4817e-05
4.057e-08
d
yr
n .2352029025190545 2.2769e-09 deg/d
Q 2.938433776420227 1.8964e-08 au
  Orbit Determination Parameters
   # obs. used (total)      804  
   data-arc span      10172 days (27.85 yr)  
   first obs. used      1992-01-30  
   last obs. used      2019-12-06  
   planetary ephem.      DE431  
   SB-pert. ephem.      SB431-N16  
   condition code      0  
   norm. resid. RMS      .49867  
   source      ORB  
   producer      Otto Matic  
   solution date      2019-Dec-14 04:03:31  

Additional Information
 Earth MOID = 1.26834 au 
 Jupiter MOID = 2.17607 au 
 T_jup = 3.369 
[ show covariance matrix ]

Ephemeris | Orbit Diagram | Orbital Elements | Mission Design | Physical Parameters | Discovery Circumstances | Close-Approach Data ]

Physical Parameter Table
Parameter Symbol Value Units Sigma Reference Notes
absolute magnitude H 14.8   n/a MPO449303  
diameter diameter 2.693 km 0.314 urn:nasa:pds:neowise_diameters_albedos::2.0[mainbelt] (http://adsabs.harvard.edu/abs/2011ApJ...741...68M)  
geometric albedo albedo 0.386   0.056 urn:nasa:pds:neowise_diameters_albedos::2.0[mainbelt] (http://adsabs.harvard.edu/abs/2011ApJ...741...68M)  

47482 (2000 AT13)          Discovered 2000-Jan-03 by LINEAR at Socorro
Reference: 20020921/Numbers.arcLast Updated: 2004-04-19

[ hide close-approach data ]
Close-Approach Data   ...sorted by Date/Time (TDB)
Date/Time (TDB) Time Uncertainty
(days_HH:MM)
Body Nominal Distance (au) Minimum Distance (au) Maximum Distance (au) V-relative (km/s) V-infinity (km/s) JD (TDB) Time Uncertainty (minutes) Semi-major axis (km) Semi-minor axis (km) range-LOV angle (deg) N-sigma BP Orbit Ref. Reference Modified
1972-Oct-20 00:15 00:01 Iris 0.0316528230847345 0.0316463041826828 0.031659343578941 7.21543007297778 7.2154300478069 2441610.510258220 1.16142573060819 483.348295697478 47.064406901176 -48.0398952563861 75087.0295396102 T 17 CATAB v2.0f-lin.ifort 2019-Dec-14 04:03:38 2019-Dec-14 04:03

Alternate Designations
 2000 AT13 = 1992 BP5 
Ephemeris | Orbit Diagram | Orbital Elements | Mission Design | Physical Parameters | Discovery Circumstances | Close-Approach Data ]
ABOUT SSD CREDITS/AWARDS PRIVACY/COPYRIGHT GLOSSARY LINKS
FirstGov 2020-Mar-29 23:12 UT
(server date/time)  
NASA Home Page
Site Manager:   Ryan S. Park
Webmaster  Alan B. Chamberlin